This is the latest recevied weather packets stored in our database for station/object KD8NVS-13. If no packets are shown the sender has not sent any weather packets the latest 10 day(s).
| Time | Temp. | Humidity | Pressure | Rain* | Wind** | Luminosity | Snow |
|---|---|---|---|---|---|---|---|
| 1778060826 | 8.89° C | 96% | 997.3 hPa | 0.25 mm | - | 0 W/m² | - |
| 1778060524 | 8.89° C | 96% | 997.6 hPa | 0.25 mm | - | 0 W/m² | - |
| 1778060223 | 8.89° C | 96% | 997.6 hPa | 0.25 mm | - | 0 W/m² | - |
| 1778059919 | 8.89° C | 96% | 997.3 hPa | 0 mm | - | 0 W/m² | - |
| 1778059617 | 8.89° C | 96% | 997.3 hPa | 0 mm | - | 0 W/m² | - |
| 1778059315 | 8.89° C | 96% | 997.6 hPa | 0 mm | - | 0 W/m² | - |
| 1778059013 | 8.89° C | 96% | 997.3 hPa | 0 mm | - | 0 W/m² | - |
| 1778058710 | 8.89° C | 96% | 997.6 hPa | 0 mm | - | 0 W/m² | - |
| 1778058407 | 8.89° C | 96% | 997 hPa | 0 mm | - | 0 W/m² | - |
| 1778058104 | 8.89° C | 96% | 996.6 hPa | 0 mm | - | 0 W/m² | - |
| 1778057801 | 8.89° C | 97% | 997.3 hPa | 2.29 mm | - | 0 W/m² | - |
| 1778057496 | 9.44° C | 97% | 997.3 hPa | 1.78 mm | - | 0 W/m² | - |
| 1778057193 | 9.44° C | 97% | 997.3 hPa | 1.78 mm | - | 0 W/m² | - |
| 1778056890 | 9.44° C | 97% | 997.3 hPa | 1.52 mm | - | 0 W/m² | - |
| 1778056587 | 9.44° C | 96% | 997.6 hPa | 1.52 mm | - | 0 W/m² | - |
| 1778056285 | 9.44° C | 96% | 997.3 hPa | 1.52 mm | - | 0 W/m² | - |
| 1778055982 | 9.44° C | 96% | 997 hPa | 1.02 mm | - | 0 W/m² | - |
| 1778055677 | 9.44° C | 97% | 997 hPa | 0.76 mm | - | 0 W/m² | - |
| 1778055376 | 9.44° C | 97% | 997.3 hPa | 0.25 mm | - | 0 W/m² | - |
| 1778055073 | 9.44° C | 97% | 997.3 hPa | 0.25 mm | - | 0 W/m² | - |
| 1778054770 | 9.44° C | 97% | 997 hPa | 0 mm | - | 0 W/m² | - |
| 1778054467 | 9.44° C | 97% | 997 hPa | 1.52 mm | - | 0 W/m² | - |
| 1778054165 | 9.44° C | 97% | 997 hPa | 1.52 mm | - | 0 W/m² | - |
| 1778053861 | 10° C | 97% | 996.6 hPa | 1.52 mm | - | 0 W/m² | - |
| 1778053559 | 10° C | 97% | 996.6 hPa | 1.52 mm | - | 0 W/m² | - |
* Rain latest hour (hover to see other rain measurements)
** Current wind speed in m/s (hover to see current wind gust speed)